Regional Weather Roundup
Issued by NWS

Home | Current Version | Previous Version | Graphics & Text | Print | Product List | Glossary On
Versions: 1 2 3 4 5 6 7 8 9 10 11 12 13 14 15 16 17 18 19 20 21 22 23 24 25 26 27 28 29 30 31 32 33 34 35 36 37 38 39 40 41 42 43 44 45 46 47 48 49 50
000
ASUS45 KSLC 232110
RWRUT

UTAH REGIONAL WEATHER ROUNDUP
NATIONAL WEATHER SERVICE SALT LAKE CITY UT
300 PM MDT SAT MAY 23 2015

UTZ001>011-023>025-232200-

NORTHERN UTAH

CITY           SKY/WX    TMP DP  RH WIND       PRES   REMARKS
BRIGHAM CITY   CLOUDY    57  45  64 W6        29.96R
HILL AFB       PTSUNNY   56  45  67 NW9       29.95S
LOGAN          CLOUDY    57  45  64 NW9       29.95R
OGDEN          MOSUNNY   58  48  69 NW6       29.94S
PROVO AIRPORT  PTSUNNY   55  43  62 S3        29.94F
SALT LAKE CITY CLOUDY    58  46  64 N9        29.93S
VERNAL         PTSUNNY   59  31  34 S9        29.94F
WENDOVER       CLOUDY    54  54 100 S12G17    29.95S
HEBER CITY     PTSUNNY   61  32  33 CALM      29.91F
WEST JORDAN    CLOUDY    57  46  67 NW8       29.94R

$$

UTZ012>022-026-027-232200-

SOUTHERN/CENTRAL UTAH

CITY           SKY/WX    TMP DP  RH WIND       PRES   REMARKS
BLANDING       CLOUDY    47  40  74 SW12G17   30.10S
BRYCE CANYON   LGT RAIN  44  38  79 NE10      30.03R
CEDAR CITY     LGT RAIN  50  43  77 S14       29.97F
DELTA          CLOUDY    54  44  70 SW9       29.97R
HANKSVILLE     PTSUNNY   57  45  62 S9        29.97S
MILFORD        LGT RAIN  49  45  86 S7        29.97R
MOAB/CYNLANDS  CLOUDY    58  36  43 S15       29.93F
PRICE          MOSUNNY   55  37  50 W7        29.97F
ST GEORGE      MOCLDY    70  43  37 NW6       29.95F
KANAB          CLOUDY    52  46  82 CALM      30.05F

$$

REGIONAL REPORTS     COLORADO/ARIZONA

CITY           SKY/WX    TMP DP  RH WIND       PRES   REMARKS
CRAIG, CO      PTSUNNY   53  36  52 W15       29.98R
GRAND JUNCTION LGT RAIN  55  36  48 SE16      29.97R
RIFLE          LGT RAIN  51  36  56 W25G38    29.95R
MONTROSE       CLOUDY    51  36  56 NE7       30.02F
CORTEZ         PTSUNNY   57  35  43 SW16G22   30.03S
PAGE, AZ       CLOUDY    57  42  57 SW6       29.99F
GRAND CANYON   LGT RAIN  47  43  86 VRB3      30.07S
KINGMAN        MOSUNNY   71  36  27 S9G21     29.98F
FLAGSTAFF      PTSUNNY   52  34  50 SW15G22   30.09S

$$

REGIONAL REPORTS    NEVADA/IDAHO/WYOMING

CITY           SKY/WX    TMP DP  RH WIND       PRES   REMARKS
LAS VEGAS, NV  PTSUNNY   78  39  24 N5        29.84F
ELY            LGT RAIN  52  42  69 N14G28    29.98S
ELKO           CLOUDY    59  45  59 CALM      29.96S
POCATELLO, ID  LGT RAIN  54  49  83 S13       29.92S
BURLEY         TSTM      57  51  80 W8        29.89S
EVANSTON, WY   LGT RAIN  39  37  92 S9        30.00R FOG     WCI  33
ROCK SPRINGS   PTSUNNY   52  37  56 N6        29.96S
KEMMERER       LGT RAIN  43  36  75 S17G25    30.01R

$$


USA.gov is the U.S. government's official web portal to all federal, state and local government web resources and services.